Weather History for Marshall, MN

Change the Weather History Date:

Tuesday, November 27, 2012

  Actual Average Record
Temperature  
Mean Temperature 27 °F -  
Max Temperature 37 °F 32 °F 60 °F (1998)
Min Temperature 17 °F 14 °F -13 °F (2014)
Degree Days  
Heating Degree Days 38    
Moisture  
Dew Point 16 °F    
Average Humidity 64    
Maximum Humidity 86    
Minimum Humidity 52    
Precipitation  
Precipitation 0.00 in - - ()
Sea Level Pressure  
Sea Level Pressure 30.17 in    
Wind  
Wind Speed 15 mph (WSW)    
Max Wind Speed 23 mph    
Max Gust Speed 29 mph    
Visibility 10 miles    
Events      
Averages and records for this station are not official NWS values.
T = Trace of Precipitation, MM = Missing Value Source: NWS Daily Summary

Daily Weather History Graph

Daily Weather History Graph

Search for Another Location

Airport:

Trip Planner

Search our weather history database for the weather conditions in past years. The results will help you decide how hot, cold, wet, or windy it might be!

Date:

Astronomy

Nov. 27, 2012 Rise Set
Actual Time 7:35 AM CST 4:46 PM CST
Civil Twilight 7:02 AM CST 5:19 PM CST
Nautical Twilight 6:26 AM CST 5:55 PM CST
Astronomical Twilight 5:51 AM CST 6:29 PM CST
Moon 4:19 PM CST 6:40 AM CST
Length of Visible Light 10h 16m
Length of Day
9h 11m
Waxing Gibbous, 99% of the Moon is Illuminated
Nov 27
Waxing Gibbous
Nov 28
Full
Dec 6
Last Quarter
Dec 13
New
Dec 19
First Quarter

Hourly Weather History & Observations

Time (CST) Temp. Windchill Dew Point Humidity Pressure Visibility Wind Dir Wind Speed Gust Speed Precip Events Conditions
12:15 AM 21.2 °F 7.3 °F 6.8 °F 54% 30.28 in 10.0 mi WSW 16.1 mph 20.7 mph N/A   Clear
12:35 AM 21.2 °F 7.3 °F 6.8 °F 54% 30.27 in 10.0 mi WSW 16.1 mph - N/A   Clear
12:55 AM 21.2 °F 6.0 °F 6.8 °F 54% 30.27 in 10.0 mi WSW 19.6 mph - N/A   Clear
1:15 AM 21.2 °F 6.0 °F 6.8 °F 54% 30.26 in 10.0 mi WSW 19.6 mph - N/A   Clear
1:35 AM 21.2 °F 6.0 °F 6.8 °F 54% 30.25 in 10.0 mi WSW 19.6 mph 25.3 mph N/A   Clear
1:55 AM 21.2 °F 5.2 °F 6.8 °F 54% 30.25 in 10.0 mi WSW 21.9 mph 28.8 mph N/A   Clear
2:15 AM 21.2 °F 8.3 °F 10.4 °F 63% 30.25 in 10.0 mi SW 13.8 mph - N/A   Clear
2:35 AM 23.0 °F 11.1 °F 8.6 °F 54% 30.25 in 10.0 mi WSW 12.7 mph - N/A   Clear
2:55 AM 23.0 °F 12.4 °F 10.4 °F 59% 30.24 in 10.0 mi WSW 10.4 mph 16.1 mph N/A   Clear
3:15 AM 23.0 °F 8.0 °F 10.4 °F 59% 30.22 in 10.0 mi WSW 20.7 mph - N/A   Clear
3:35 AM 23.0 °F 7.2 °F 12.2 °F 63% 30.21 in 10.0 mi WSW 23.0 mph 27.6 mph N/A   Clear
3:55 AM 23.0 °F 8.7 °F 12.2 °F 63% 30.20 in 10.0 mi SW 18.4 mph - N/A   Clear
4:15 AM 24.8 °F 11.9 °F 12.2 °F 59% 30.21 in 10.0 mi SW 16.1 mph - N/A   Clear
4:35 AM 24.8 °F 11.1 °F 12.2 °F 59% 30.20 in 10.0 mi SW 18.4 mph - N/A   Clear
4:55 AM 24.8 °F 11.5 °F 12.2 °F 59% 30.20 in 10.0 mi SW 17.3 mph - N/A   Clear
5:15 AM 26.6 °F 13.8 °F 15.8 °F 64% 30.19 in 10.0 mi SW 17.3 mph - N/A   Clear
5:35 AM 24.8 °F 11.1 °F 14.0 °F 64% 30.18 in 10.0 mi SSW 18.4 mph - N/A   Clear
5:55 AM 24.8 °F 11.9 °F 14.0 °F 64% 30.17 in 10.0 mi SSW 16.1 mph - N/A   Clear
6:15 AM 24.8 °F 11.5 °F 14.0 °F 64% 30.17 in 10.0 mi SSW 17.3 mph 23.0 mph N/A   Clear
6:35 AM 23.0 °F 10.1 °F 15.8 °F 74% 30.16 in 10.0 mi SSW 15.0 mph - N/A   Clear
6:55 AM 24.8 °F 13.4 °F 15.8 °F 69% 30.16 in 10.0 mi SSW 12.7 mph - N/A   Clear
7:15 AM 24.8 °F 12.4 °F 15.8 °F 69% 30.15 in 10.0 mi SSW 15.0 mph - N/A   Clear
7:35 AM 24.8 °F 12.9 °F 17.6 °F 74% 30.14 in 10.0 mi SSW 13.8 mph - N/A   Clear
7:55 AM 26.6 °F 15.7 °F 17.6 °F 69% 30.14 in 10.0 mi SSW 12.7 mph - N/A   Clear
8:15 AM 26.6 °F 15.7 °F 17.6 °F 69% 30.13 in 10.0 mi SSW 12.7 mph - N/A   Clear
8:35 AM 26.6 °F 14.7 °F 19.4 °F 74% 30.13 in 10.0 mi SSW 15.0 mph - N/A   Clear
8:55 AM 28.4 °F 15.8 °F 19.4 °F 69% 30.12 in 10.0 mi SSW 18.4 mph - N/A   Partly Cloudy
9:15 AM 28.4 °F 16.2 °F 19.4 °F 69% 30.11 in 10.0 mi SW 17.3 mph - N/A   Scattered Clouds
9:35 AM 28.4 °F 15.8 °F 19.4 °F 69% 30.11 in 10.0 mi SW 18.4 mph 24.2 mph N/A   Scattered Clouds
9:55 AM 30.2 °F 18.5 °F 19.4 °F 64% 30.11 in 10.0 mi SW 17.3 mph 21.9 mph N/A   Clear
10:15 AM 33.8 °F 22.2 °F 19.4 °F 56% 30.10 in 10.0 mi WSW 20.7 mph 27.6 mph N/A   Clear
10:35 AM 33.8 °F 21.9 °F 19.4 °F 56% 30.11 in 10.0 mi WSW 21.9 mph 28.8 mph N/A   Clear
10:55 AM 35.6 °F 24.2 °F 19.4 °F 52% 30.11 in 10.0 mi WSW 21.9 mph 27.6 mph N/A   Clear
11:15 AM 35.6 °F 24.2 °F 19.4 °F 52% 30.10 in 10.0 mi WSW 21.9 mph 27.6 mph N/A   Scattered Clouds
11:35 AM 35.6 °F 24.8 °F 19.4 °F 52% 30.10 in 10.0 mi WSW 19.6 mph - N/A   Mostly Cloudy
11:55 AM 33.8 °F 22.5 °F 19.4 °F 56% 30.10 in 10.0 mi WSW 19.6 mph - N/A   Partly Cloudy
12:15 PM 33.8 °F 23.9 °F 19.4 °F 56% 30.09 in 10.0 mi West 15.0 mph - N/A   Clear
12:35 PM 33.8 °F 23.2 °F 19.4 °F 56% 30.09 in 10.0 mi West 17.3 mph - N/A   Clear
12:55 PM 33.8 °F 24.3 °F 21.2 °F 60% 30.08 in 10.0 mi WSW 13.8 mph - N/A   Clear
1:15 PM 35.6 °F 27.1 °F 21.2 °F 56% 30.07 in 10.0 mi West 12.7 mph - N/A   Clear
1:35 PM 35.6 °F 28.0 °F 21.2 °F 56% 30.07 in 10.0 mi West 10.4 mph - N/A   Clear
1:55 PM 37.4 °F 29.8 °F 23.0 °F 56% 30.08 in 10.0 mi West 11.5 mph - N/A   Clear
2:15 PM 37.4 °F 29.3 °F 23.0 °F 56% 30.08 in 10.0 mi West 12.7 mph - N/A   Clear
2:35 PM 37.4 °F 30.3 °F 23.0 °F 56% 30.07 in 10.0 mi WNW 10.4 mph - N/A   Clear
2:55 PM 37.4 °F 31.4 °F 23.0 °F 56% 30.08 in 10.0 mi West 8.1 mph - N/A   Clear
3:15 PM 37.4 °F 28.9 °F 21.2 °F 52% 30.09 in 10.0 mi West 13.8 mph - N/A   Clear
3:35 PM 37.4 °F 29.8 °F 21.2 °F 52% 30.10 in 10.0 mi West 11.5 mph 20.7 mph N/A   Clear
4:15 PM 37.4 °F 31.4 °F 23.0 °F 56% 30.11 in 10.0 mi NNW 8.1 mph - N/A   Clear
4:35 PM 35.6 °F 28.6 °F 21.2 °F 56% 30.12 in 10.0 mi North 9.2 mph - N/A   Clear
4:55 PM 33.8 °F 26.4 °F 21.2 °F 60% 30.13 in 10.0 mi North 9.2 mph - N/A   Clear
5:15 PM 32.0 °F 24.8 °F 19.4 °F 60% 30.14 in 10.0 mi NNW 8.1 mph - N/A   Clear
5:35 PM 32.0 °F 24.8 °F 19.4 °F 60% 30.14 in 10.0 mi NNW 8.1 mph - N/A   Clear
5:55 PM 28.4 °F 21.2 °F 17.6 °F 64% 30.15 in 10.0 mi NW 6.9 mph - N/A   Clear
6:15 PM 26.6 °F 17.5 °F 15.8 °F 64% 30.16 in 10.0 mi NW 9.2 mph - N/A   Clear
6:35 PM 24.8 °F 16.1 °F 15.8 °F 69% 30.17 in 10.0 mi WNW 8.1 mph - N/A   Clear
6:55 PM 21.2 °F 10.9 °F 14.0 °F 74% 30.18 in 10.0 mi WNW 9.2 mph - N/A   Clear
7:15 PM 23.0 °F 13.1 °F 15.8 °F 74% 30.19 in 10.0 mi WNW 9.2 mph - N/A   Clear
7:35 PM 23.0 °F 13.9 °F 15.8 °F 74% 30.20 in 10.0 mi WNW 8.1 mph - N/A   Clear
7:55 PM 21.2 °F 10.9 °F 14.0 °F 74% 30.20 in 10.0 mi WNW 9.2 mph - N/A   Clear
8:15 PM 21.2 °F 9.5 °F 14.0 °F 74% 30.21 in 10.0 mi WNW 11.5 mph - N/A   Clear
8:35 PM 21.2 °F 12.6 °F 15.8 °F 80% 30.22 in 10.0 mi WNW 6.9 mph - N/A   Clear
8:55 PM 19.4 °F 8.6 °F 12.2 °F 74% 30.23 in 10.0 mi WNW 9.2 mph - N/A   Clear
9:15 PM 19.4 °F 10.4 °F 15.8 °F 86% 30.23 in 10.0 mi WNW 6.9 mph - N/A   Clear
9:35 PM 19.4 °F 9.5 °F 12.2 °F 74% 30.23 in 10.0 mi WNW 8.1 mph - N/A   Clear
9:55 PM 19.4 °F 10.4 °F 12.2 °F 74% 30.24 in 10.0 mi WNW 6.9 mph - N/A   Clear
10:15 PM 17.6 °F 9.3 °F 12.2 °F 79% 30.25 in 10.0 mi WNW 5.8 mph - N/A   Clear
10:35 PM 17.6 °F 7.3 °F 12.2 °F 79% 30.26 in 10.0 mi West 8.1 mph - N/A   Clear
10:55 PM 17.6 °F 8.2 °F 14.0 °F 86% 30.26 in 10.0 mi WNW 6.9 mph - N/A   Clear
11:15 PM 17.6 °F 8.2 °F 10.4 °F 73% 30.26 in 10.0 mi WNW 6.9 mph - N/A   Clear
11:35 PM 19.4 °F 10.4 °F 14.0 °F 80% 30.27 in 10.0 mi West 6.9 mph - N/A   Clear
11:55 PM 17.6 °F 9.3 °F 12.2 °F 79% 30.28 in 10.0 mi West 5.8 mph - N/A   Clear